Weather History for KMOT - June, 2013

Change the Weather History Date:

Tuesday, June 11, 2013

  Actual Average Record
Temperature  
Mean Temperature 66 °F 63 °F  
Max Temperature 79 °F 74 °F 95 °F (1961)
Min Temperature 52 °F 52 °F 35 °F (1915)
Cooling Degree Days 1 2  
Month to date cooling degree days 2 18  
Year to date cooling degree days 12 34  
Since 1 June cooling degree days 2 18  
Growing Degree Days 16 (Base 50)    
Moisture  
Dew Point 49 °F    
Average Humidity 59    
Maximum Humidity 86    
Minimum Humidity 31    
Precipitation  
Precipitation 0.00 in 0.12 in 1.88 in (2008)
Month to date precipitation 2.87 1.31  
Year to date precipitation 11.24 6.70  
Sea Level Pressure  
Sea Level Pressure 29.91 in    
Wind  
Wind Speed 5 mph (NNW)    
Max Wind Speed 10 mph    
Max Gust Speed 15 mph    
Visibility 10 miles    
Events      
T = Trace of Precipitation, MM = Missing Value Source: NWS Daily Summary

Daily Weather History Graph

Daily Weather History Graph

Search for Another Location

Airport or City:

Trip Planner

Search our weather history database for the weather conditions in past years. The results will help you decide how hot, cold, wet, or windy it might be!

Date:

Astronomy

Jun. 11, 2013 Rise Set
Actual Time 5:44 AM CDT 9:45 PM CDT
Civil Twilight 5:02 AM CDT 10:27 PM CDT
Nautical Twilight 4:05 AM CDT 11:24 PM CDT
Astronomical Twilight 2:27 AM CDT 1:04 AM CDT
Moon 8:39 AM CDT (6/11) 11:36 PM CDT (6/11)
Length of Visible Light 17h 24m
Length of Day
16h 01m
Waxing Crescent, 8% of the Moon is Illuminated
Jun 11
Waxing Crescent
Jun 16
First Quarter
Jun 23
Full
Jun 29
Last Quarter
Jul 8
New

Hourly Weather History & Observations

Time (CDT) Temp. Dew Point Humidity Pressure Visibility Wind Dir Wind Speed Gust Speed Precip Events Conditions
12:54 AM 57.0 °F 52.0 °F 83% 29.89 in 10.0 mi SW 6.9 mph - N/A   Clear
1:54 AM 57.0 °F 50.0 °F 77% 29.90 in 10.0 mi SW 8.1 mph - N/A   Clear
2:54 AM 55.0 °F 48.9 °F 80% 29.89 in 10.0 mi Calm Calm - N/A   Clear
3:54 AM 55.0 °F 48.9 °F 80% 29.88 in 10.0 mi South 3.5 mph - N/A   Clear
4:54 AM 54.0 °F 48.9 °F 83% 29.88 in 10.0 mi Calm Calm - N/A   Clear
5:54 AM 53.1 °F 48.0 °F 83% 29.88 in 10.0 mi WNW 5.8 mph - N/A   Clear
6:54 AM 55.0 °F 51.1 °F 86% 29.90 in 10.0 mi WSW 4.6 mph - N/A   Clear
7:54 AM 60.1 °F 53.1 °F 78% 29.93 in 10.0 mi Calm Calm - N/A   Clear
8:54 AM 66.0 °F 48.9 °F 54% 29.93 in 10.0 mi WNW 4.6 mph - N/A   Clear
9:54 AM 68.0 °F 48.0 °F 49% 29.93 in 10.0 mi NW 8.1 mph - N/A   Clear
10:54 AM 70.0 °F 48.9 °F 47% 29.93 in 10.0 mi NNW 5.8 mph - N/A   Clear
11:54 AM 72.0 °F 46.0 °F 40% 29.93 in 10.0 mi WNW 4.6 mph - N/A   Clear
12:54 PM 75.0 °F 48.0 °F 38% 29.93 in 10.0 mi Variable 4.6 mph - N/A   Clear
1:54 PM 75.9 °F 48.0 °F 37% 29.93 in 10.0 mi North 3.5 mph - N/A   Clear
2:54 PM 77.0 °F 45.0 °F 32% 29.91 in 10.0 mi North 5.8 mph - N/A   Clear
3:54 PM 77.0 °F 45.0 °F 32% 29.91 in 10.0 mi NNW 5.8 mph - N/A   Clear
4:54 PM 79.0 °F 46.9 °F 32% 29.91 in 10.0 mi North 6.9 mph - N/A   Clear
5:54 PM 78.1 °F 46.9 °F 33% 29.91 in 10.0 mi NNW 4.6 mph - N/A   Mostly Cloudy
6:54 PM 77.0 °F 46.9 °F 34% 29.90 in 10.0 mi NNE 6.9 mph - N/A   Clear
7:54 PM 73.0 °F 48.9 °F 42% 29.90 in 10.0 mi North 6.9 mph - N/A   Clear
8:54 PM 70.0 °F 52.0 °F 53% 29.91 in 10.0 mi North 6.9 mph - N/A   Partly Cloudy
9:54 PM 64.0 °F 54.0 °F 70% 29.93 in 10.0 mi North 5.8 mph - N/A   Clear
10:54 PM 61.0 °F 52.0 °F 72% 29.94 in 10.0 mi North 6.9 mph - N/A   Clear
11:54 PM 62.1 °F 52.0 °F 70% 29.94 in 10.0 mi NNW 6.9 mph - N/A   Overcast